This is the latest recevied weather packets stored in our database for station/object KA3ZXO. If no packets are shown the sender has not sent any weather packets the latest 10 day(s).
| Time | Temp. | Humidity | Pressure | Rain* | Wind** | Luminosity | Snow |
|---|---|---|---|---|---|---|---|
| 1777375604 | 7.22° C | 96% | 1022.2 hPa | 0 mm | - | 33 W/m² | - |
| 1777375003 | 6.67° C | 96% | 1022.4 hPa | 0 mm | - | 20 W/m² | - |
| 1777374400 | 6.67° C | 96% | 1022.3 hPa | 0 mm | - | 14 W/m² | - |
| 1777373799 | 6.67° C | 97% | 1022 hPa | 0 mm | - | 9 W/m² | - |
| 1777373197 | 6.11° C | 97% | 1022 hPa | 0 mm | - | 6 W/m² | - |
| 1777372594 | 6.11° C | 97% | 1022.1 hPa | 0 mm | - | 6 W/m² | - |
| 1777371992 | 6.11° C | 97% | 1022 hPa | 0 mm | - | 4 W/m² | - |
| 1777371391 | 5.56° C | 97% | 1022 hPa | 0 mm | - | 1 W/m² | - |
| 1777370790 | 5.56° C | 97% | 1022 hPa | 0 mm | - | 0 W/m² | - |
| 1777370186 | 5.56° C | 97% | 1021.9 hPa | 0 mm | - | 0 W/m² | - |
| 1777369585 | 5.56° C | 97% | 1021.9 hPa | 0 mm | - | 0 W/m² | - |
| 1777368980 | 5.56° C | 97% | 1022 hPa | 0 mm | - | 0 W/m² | - |
| 1777368375 | 5.56° C | 97% | 1022.1 hPa | 0 mm | - | 0 W/m² | - |
| 1777367776 | 5.56° C | 97% | 1022.2 hPa | 0 mm | - | 0 W/m² | - |
| 1777367172 | 5.56° C | 97% | 1022.1 hPa | 0 mm | - | 0 W/m² | - |
| 1777366569 | 5.56° C | 97% | 1022.3 hPa | 0 mm | - | 0 W/m² | - |
| 1777365965 | 5.56° C | 96% | 1022.3 hPa | 0 mm | - | 0 W/m² | - |
| 1777365361 | 5.56° C | 96% | 1022.2 hPa | 0 mm | - | 0 W/m² | - |
| 1777364761 | 5.56° C | 96% | 1022.7 hPa | 0 mm | - | 0 W/m² | - |
| 1777364158 | 5.56° C | 96% | 1022.9 hPa | 0 mm | - | 0 W/m² | - |
| 1777363556 | 5.56° C | 97% | 1022.9 hPa | 0 mm | - | 0 W/m² | - |
| 1777362956 | 5.56° C | 96% | 1022.9 hPa | 0 mm | - | 0 W/m² | - |
| 1777362352 | 5.56° C | 96% | 1022.8 hPa | 0 mm | - | 0 W/m² | - |
| 1777361752 | 6.11° C | 96% | 1022.8 hPa | 0 mm | - | 0 W/m² | - |
| 1777361151 | 6.11° C | 97% | 1022.9 hPa | 0 mm | - | 0 W/m² | - |
* Rain latest hour (hover to see other rain measurements)
** Current wind speed in m/s (hover to see current wind gust speed)